Location: Treviso
(45.6669°N, 12.2430°E)
Time: 08:21:11
(UTC+02:00)

ISS - Pass Details

Date: 22 May 2018
Orbit: 402 x 407 km, 51.6° (Epoch: 26 May)

Event Time Altitude Azimuth Distance (km) Brightness Sun altitude
Rises 03:04:53 0° 298° (WNW) 2,320 0.0 -18.8°
Reaches altitude 10° 03:06:59 10° 302° (WNW) 1,459 -1.0 -18.6°
Maximum altitude 03:10:13 62° 24° (NNE) 456 -3.4 -18.4°
Drops below altitude 10° 03:13:27 10° 107° (ESE) 1,453 -0.9 -18.1°
Sets 03:15:33 0° 110° (ESE) 2,310 0.2 -17.9°
